Hourly Data Report for October 04, 2013

All times are specified in Local Standard Time (LST). Add 1 hour to adjust for Daylight Saving Time where and when it is observed.

OTTAWA INTL A
ONTARIO

45°19'00.000" N
75°40'00.000" W
114.90 m
6106001
71628
YOW

Download Data

Hourly Data (October 2013)
Hourly Data Report for October 4, 2013
Temp Definition
°C
Dew Point Temp Definition
°C
Rel Hum Definition
%
Wind Dir Definition
10's deg

Wind Spd Definition
km/h
Visibility Definition
km
Stn Press Definition
kPa
Hmdx Definition


Wind Chill Definition


Weather Definition


TIME
00:00 Legend Double Dagger 14.1 9.4 73 33 2 24.1 100.41     LegendNANA
01:00 Legend Double Dagger 14.6 9.7 72 36 5 24.1 100.43     Mostly Cloudy
02:00 Legend Double Dagger 14.3 9.8 74 35 3 24.1 100.40     LegendNANA
03:00 Legend Double Dagger 14.1 9.6 74 4 8 24.1 100.40     LegendNANA
04:00 Legend Double Dagger 13.8 10.1 78 4 12 24.1 100.43     Rain
05:00 Legend Double Dagger 13.4 9.7 78 4 13 24.1 100.47     LegendNANA
06:00 Legend Double Dagger 13.4 9.5 77 4 12 24.1 100.50     LegendNANA
07:00 Legend Double Dagger 13.8 8.9 72 3 15 16.1 100.57     Rain
08:00 Legend Double Dagger 12.7 10.6 87 3 15 16.1 100.65     Rain
09:00 Legend Double Dagger 12.7 10.6 87 6 16 16.1 100.65     Rain
10:00 Legend Double Dagger 13.0 10.7 86 6 15 24.1 100.66     Rain
11:00 Legend Double Dagger 13.6 10.6 82 7 15 24.1 100.63     Rain
12:00 Legend Double Dagger 14.9 10.8 76 6 18 24.1 100.59     LegendNANA
13:00 Legend Double Dagger 16.6 9.8 64 7 14 24.1 100.54     Mostly Cloudy
14:00 Legend Double Dagger 15.8 9.5 66 5 13 24.1 100.53     LegendNANA
15:00 Legend Double Dagger 15.7 9.7 67 4 15 24.1 100.51     LegendNANA
16:00 Legend Double Dagger 15.4 9.6 68 5 10 24.1 100.50     Mostly Cloudy
17:00 Legend Double Dagger 14.8 9.2 69 4 13 24.1 100.55     LegendNANA
18:00 Legend Double Dagger 14.5 8.7 68 4 9 24.1 100.58     LegendNANA
19:00 Legend Double Dagger 14.1 8.8 70 7 4 24.1 100.59     Cloudy
20:00 Legend Double Dagger 14.3 8.7 69 5 8 24.1 100.59     LegendNANA
21:00 Legend Double Dagger 13.2 9.1 76 5 9 24.1 100.61     LegendNANA
22:00 Legend Double Dagger 13.4 8.9 74 4 74 24.1 100.65     Cloudy
23:00 Legend Double Dagger 13.1 8.6 74 4 10 24.1 100.61     LegendNANA

Notes on Data Quality.

Legend

  • E = Estimated
  • M = Missing
  • NA = Not Available
  • ‡ = Partner data that is not subject to review by the National Climate Archives
Date modified: